GW7645 Weather Reports


time (UTC)temp
C
wind
direction
speed
KPH
gust
KPH
rain 1hr
cm
rain 24hr
cm
rain mn
cm
humidity
%
barometer
mb
20260906113556 19 113 3.2 4.8 0.00 0.00 0.00 62 1020.2
20260906113051 20 127 4.8 4.8 0.00 0.00 0.00 62 1020.0
20260906112546 20 75 1.6 4.8 0.00 0.00 0.00 62 1019.8
20260906112042 20 117 4.8 6.4 0.00 0.00 0.00 62 1020.0
20260906111542 20 119 4.8 6.4 0.00 0.00 0.00 62 1020.0
20260906111037 20 116 3.2 6.4 0.00 0.00 0.00 62 1019.7
20260906110536 20 153 6.4 6.4 0.00 0.00 0.00 62 1019.7
20260906110036 20 116 8.0 9.7 0.00 0.00 0.00 62 1020.0
20260906105531 20 107 4.8 6.4 0.00 0.00 0.00 62 1019.8
20260906105027 20 134 6.4 6.4 0.00 0.00 0.00 62 1019.8
20260906104525 20 163 1.6 3.2 0.00 0.00 0.00 62 1019.6
20260906104021 20 105 6.4 6.4 0.00 0.00 0.00 62 1019.5
20260906103519 20 95 3.2 4.8 0.00 0.00 0.00 62 1019.6
20260906103014 20 138 8.0 11.3 0.00 0.00 0.00 62 1019.5
20260906102514 20 136 3.2 3.2 0.00 0.00 0.00 62 1019.6
20260906102015 20 107 8.0 11.3 0.00 0.00 0.00 62 1019.4
20260906101509 20 97 9.7 11.3 0.00 0.00 0.00 62 1019.5
20260906101004 20 133 6.4 6.4 0.00 0.00 0.00 62 1019.7
20260906100500 20 88 9.7 12.9 0.00 0.00 0.00 62 1019.4
20260906095954 20 142 6.4 6.4 0.00 0.00 0.00 62 1019.6
20260906095449 20 98 3.2 4.8 0.00 0.00 0.00 62 1019.3
20260906094944 20 121 12.9 14.5 0.00 0.00 0.00 62 1019.2
20260906094438 20 91 11.3 14.5 0.00 0.00 0.00 62 1019.1
20260906093934 20 144 1.6 3.2 0.00 0.00 0.00 62 1019.0
20260906093430 20 96 4.8 4.8 0.00 0.00 0.00 62 1018.9
20260906092930 20 93 1.6 3.2 0.00 0.00 0.00 62 1018.9
20260906092429 20 172 0.0 1.6 0.00 0.00 0.00 62 1018.7
20260906091925 20 120 1.6 3.2 0.00 0.00 0.00 62 1018.8
20260906091421 20 85 3.2 3.2 0.00 0.00 0.00 62 1018.7
20260906090917 20 159 3.2 4.8 0.00 0.00 0.00 62 1019.0
20260906090412 20 97 3.2 4.8 0.00 0.00 0.00 62 1018.7
20260906085907 20 129 3.2 3.2 0.00 0.00 0.00 62 1018.7
20260906085405 20 119 3.2 3.2 0.00 0.00 0.00 62 1018.8
20260906084905 20 120 3.2 3.2 0.00 0.00 0.00 62 1019.0
20260906084400 20 102 4.8 4.8 0.00 0.00 0.00 62 1018.9
20260906083854 20 115 6.4 6.4 0.00 0.00 0.00 62 1019.1
20260906083349 20 142 1.6 3.2 0.00 0.00 0.00 62 1019.1
20260906082849 20 146 6.4 6.4 0.00 0.00 0.00 62 1019.0
20260906082344 20 143 1.6 1.6 0.00 0.00 0.00 62 1019.0
20260906081840 20 129 3.2 4.8 0.00 0.00 0.00 62 1018.8
20260906081335 20 112 1.6 3.2 0.00 0.00 0.00 62 1018.8
20260906080832 20 72 1.6 3.2 0.00 0.00 0.00 62 1019.0
20260906080328 20 130 1.6 1.6 0.00 0.00 0.00 62 1018.8
20260906075827 21 99 4.8 6.4 0.00 0.00 0.00 62 1018.9
20260906075327 21 100 1.6 1.6 0.00 0.00 0.00 62 1018.8
20260906074823 21 97 6.4 6.4 0.00 0.00 0.00 62 1019.0
20260906074322 21 183 0.0 0.0 0.00 0.00 0.00 62 1019.1
20260906073821 21 150 1.6 3.2 0.00 0.00 0.00 62 1018.9
20260906073322 21 138 3.2 3.2 0.00 0.00 0.00 62 1019.1
20260906072818 21 104 0.0 1.6 0.00 0.00 0.00 62 1018.8
20260906072314 21 175 1.6 1.6 0.00 0.00 0.00 62 1019.0
20260906071809 21 139 1.6 3.2 0.00 0.00 0.00 62 1018.8
20260906071304 21 103 4.8 6.4 0.00 0.00 0.00 62 1018.9
20260906070801 21 123 3.2 3.2 0.00 0.00 0.00 62 1019.1
20260906070256 21 109 1.6 3.2 0.00 0.00 0.00 62 1019.1
20260906065755 21 60 1.6 3.2 0.00 0.00 0.00 62 1019.0
20260906065251 21 154 1.6 1.6 0.00 0.00 0.00 62 1019.0
20260906064747 21 139 1.6 1.6 0.00 0.00 0.00 62 1019.1
20260906064243 21 141 6.4 6.4 0.00 0.00 0.00 62 1019.1
20260906063737 21 47 4.8 4.8 0.00 0.00 0.00 62 1019.5
20260906063233 21 170 1.6 3.2 0.00 0.00 0.00 62 1019.4
20260906062728 21 25 3.2 4.8 0.00 0.00 0.00 62 1019.4
20260906062227 21 70 0.0 1.6 0.00 0.00 0.00 62 1019.3
20260906061723 21 97 6.4 6.4 0.00 0.00 0.00 62 1019.5
20260906061219 21 109 3.2 3.2 0.00 0.00 0.00 62 1019.5
20260906060714 21 129 3.2 4.8 0.00 0.00 0.00 62 1019.5
20260906060212 21 68 1.6 3.2 0.00 0.00 0.00 62 1019.6
20260906055707 21 46 3.2 4.8 0.00 0.00 0.00 62 1019.6
20260906055202 21 143 1.6 3.2 0.00 0.00 0.00 62 1019.4
20260906054658 21 152 3.2 4.8 0.00 0.00 0.00 62 1019.6
20260906054158 21 132 4.8 6.4 0.00 0.00 0.00 62 1019.5
20260906053655 21 104 0.0 1.6 0.00 0.00 0.00 62 1019.5
20260906053150 21 23 3.2 3.2 0.00 0.00 0.00 62 1019.4
20260906052645 21 55 1.6 3.2 0.00 0.00 0.00 62 1019.4
20260906052141 21 47 1.6 3.2 0.00 0.00 0.00 62 1019.3
20260906051638 22 347 4.8 4.8 0.00 0.00 0.00 62 1019.2
20260906051137 22 97 1.6 1.6 0.00 0.00 0.00 62 1019.1
20260906050633 22 257 0.0 0.0 0.00 0.00 0.00 62 1019.0
20260906050128 22 67 4.8 4.8 0.00 0.00 0.00 62 1019.1
20260906045626 22 44 3.2 4.8 0.00 0.00 0.00 62 1019.2
20260906045122 22 129 1.6 3.2 0.00 0.00 0.00 62 1019.2
20260906044618 22 164 1.6 1.6 0.00 0.00 0.00 62 1019.3
20260906044113 22 321 1.6 1.6 0.00 0.00 0.00 62 1019.4
20260906043609 22 358 6.4 9.7 0.00 0.00 0.00 62 1019.0
20260906043104 22 140 3.2 4.8 0.00 0.00 0.00 62 1019.1
20260906042603 21 125 3.2 4.8 0.00 0.00 0.00 62 1019.1
20260906042058 21 118 3.2 4.8 0.00 0.00 0.00 62 1019.4
20260906041554 21 64 1.6 3.2 0.00 0.00 0.00 62 1019.2
20260906041049 21 298 3.2 3.2 0.00 0.00 0.00 62 1019.4
20260906040544 21 324 3.2 3.2 0.00 0.00 0.00 62 1019.4
20260906040039 21 205 0.0 0.0 0.00 0.00 0.00 62 1019.1
20260906035534 21 154 1.6 1.6 0.00 0.00 0.00 62 1019.1
20260906035031 21 197 0.0 0.0 0.00 0.00 0.00 62 1019.0
20260906034530 21 268 3.2 3.2 0.00 0.00 0.00 62 1019.2
20260906034025 21 173 0.0 0.0 0.00 0.00 0.00 62 1019.1
20260906033520 21 210 0.0 0.0 0.00 0.00 0.00 62 1019.1
20260906033016 21 303 0.0 1.6 0.00 0.00 0.00 62 1019.2
20260906032513 21 249 0.0 1.6 0.00 0.00 0.00 62 1019.0
20260906032012 22 88 1.6 1.6 0.00 0.00 0.00 62 1019.1
20260906031508 22 73 1.6 3.2 0.00 0.00 0.00 62 1018.9
20260906031003 22 354 4.8 4.8 0.00 0.00 0.00 62 1018.6
20260906030457 22 227 0.0 0.0 0.00 0.00 0.00 62 1018.6
20260906025957 22 233 0.0 0.0 0.00 0.00 0.00 63 1018.6
20260906025457 22 203 0.0 0.0 0.00 0.00 0.00 63 1018.5
20260906024956 22 230 0.0 0.0 0.00 0.00 0.00 63 1018.6
20260906024456 22 255 1.6 1.6 0.00 0.00 0.00 63 1018.6
20260906023956 22 207 0.0 0.0 0.00 0.00 0.00 63 1018.3
20260906023452 22 198 0.0 0.0 0.00 0.00 0.00 63 1018.2
20260906022947 22 241 0.0 0.0 0.00 0.00 0.00 63 1018.3
20260906022442 22 242 1.6 1.6 0.00 0.00 0.00 63 1018.4
20260906021937 22 198 0.0 0.0 0.00 0.00 0.00 63 1017.9
20260906021438 22 181 3.2 3.2 0.00 0.00 0.00 63 1018.0
20260906020932 22 175 1.6 1.6 0.00 0.00 0.00 63 1018.2
20260906020427 22 288 1.6 3.2 0.00 0.00 0.00 63 1018.5
20260906015921 22 304 3.2 3.2 0.00 0.00 0.00 63 1018.1
20260906015421 23 354 3.2 4.8 0.00 0.00 0.00 63 1018.1
20260906014920 23 152 0.0 0.0 0.00 0.00 0.00 63 1018.0
20260906014420 23 182 0.0 0.0 0.00 0.00 0.00 63 1017.8
20260906013917 23 176 0.0 0.0 0.00 0.00 0.00 63 1017.7
20260906013412 23 182 0.0 0.0 0.00 0.00 0.00 63 1017.7
20260906012908 23 184 0.0 0.0 0.00 0.00 0.00 63 1017.7
20260906012402 23 169 1.6 1.6 0.00 0.00 0.00 63 1017.5
20260906011901 23 199 0.0 0.0 0.00 0.00 0.00 63 1017.5
20260906011356 23 183 0.0 0.0 0.00 0.00 0.00 63 1017.4
20260906010852 23 117 3.2 3.2 0.00 0.00 0.00 63 1017.3
20260906010348 23 60 3.2 4.8 0.00 0.00 0.00 63 1017.2
20260906005843 23 66 4.8 4.8 0.00 0.00 0.00 63 1017.3
20260906005342 23 152 6.4 6.4 0.00 0.00 0.00 63 1017.2
20260906004841 23 41 6.4 9.7 0.00 0.00 0.00 63 1017.2
20260906004336 24 56 1.6 3.2 0.00 0.00 0.00 63 1017.2
20260906003831 24 100 9.7 11.3 0.00 0.00 0.00 63 1017.1
20260906003326 24 33 6.4 9.7 0.00 0.00 0.00 63 1017.0
20260906002822 24 32 4.8 4.8 0.00 0.00 0.00 63 1016.9
20260906002321 24 57 4.8 4.8 0.00 0.00 0.00 63 1016.8
20260906001817 25 66 0.0 0.0 0.00 0.00 0.00 63 1016.8
20260906001312 25 57 3.2 4.8 0.00 0.00 0.00 63 1016.8
20260906000813 25 52 1.6 3.2 0.00 0.00 0.00 63 1016.8
20260906000307 25 40 1.6 3.2 0.00 0.00 0.00 63 1016.7
20260905235802 25 100 6.4 6.4 0.00 0.00 0.00 63 1016.8
20260905235306 25 114 3.2 3.2 0.00 0.00 0.00 63 1016.8
20260905234758 25 86 3.2 4.8 0.00 0.00 0.00 63 1016.7
20260905234253 25 116 3.2 4.8 0.00 0.00 0.00 63 1016.9
20260905233748 25 92 8.0 11.3 0.00 0.00 0.00 63 1016.5
20260905233248 25 94 4.8 6.4 0.00 0.00 0.00 63 1016.7
20260905232747 25 158 6.4 9.7 0.00 0.00 0.00 63 1016.5
20260905232243 25 39 3.2 4.8 0.00 0.00 0.00 63 1016.5
20260905231739 25 56 3.2 4.8 0.00 0.00 0.00 63 1016.4
20260905231234 25 38 8.0 9.7 0.00 0.00 0.00 63 1016.4
20260905230730 25 77 3.2 4.8 0.00 0.00 0.00 63 1016.4
20260905230228 25 30 6.4 9.7 0.00 0.00 0.00 63 1016.5
20260905225727 25 35 6.4 6.4 0.00 0.00 0.00 63 1016.3
20260905225223 25 87 4.8 6.4 0.00 0.00 0.00 63 1016.4
20260905224722 25 84 4.8 6.4 0.00 0.00 0.00 63 1016.3
20260905224217 26 101 3.2 4.8 0.00 0.00 0.00 63 1016.5
20260905223714 26 131 3.2 4.8 0.00 0.00 0.00 63 1016.7
20260905223210 26 44 6.4 6.4 0.00 0.00 0.00 63 1016.9
20260905222706 26 39 6.4 9.7 0.00 0.00 0.00 63 1016.9
20260905222205 26 46 6.4 9.7 0.00 0.00 0.00 63 1016.7
20260905221701 26 18 8.0 11.3 0.00 0.00 0.00 63 1016.5
20260905221158 26 62 3.2 4.8 0.00 0.00 0.00 63 1016.5
20260905220653 26 30 1.6 3.2 0.00 0.00 0.00 63 1016.7
20260905220149 26 65 3.2 4.8 0.00 0.00 0.00 63 1016.5
20260905215648 26 120 1.6 1.6 0.00 0.00 0.00 63 1016.8
20260905215144 26 52 6.4 6.4 0.00 0.00 0.00 63 1016.7
20260905214640 26 24 4.8 6.4 0.00 0.00 0.00 63 1016.9
20260905214135 26 35 6.4 9.7 0.00 0.00 0.00 63 1016.8
20260905213630 26 55 1.6 1.6 0.00 0.00 0.00 63 1016.9
20260905213125 26 58 1.6 1.6 0.00 0.00 0.00 63 1017.0
20260905212621 26 70 3.2 3.2 0.00 0.00 0.00 63 1016.8
20260905212120 26 72 1.6 1.6 0.00 0.00 0.00 63 1016.8
20260905211615 26 75 3.2 3.2 0.00 0.00 0.00 63 1016.8
20260905211111 26 37 4.8 4.8 0.00 0.00 0.00 63 1016.8
20260905210607 27 70 9.7 12.9 0.00 0.00 0.00 63 1016.5
20260905205601 27 34 6.4 11.3 0.00 0.00 0.00 63 1016.8
20260905205100 27 51 3.2 6.4 0.00 0.00 0.00 63 1016.8
20260905204555 26 36 6.4 6.4 0.00 0.00 0.00 63 1016.7
20260905204050 26 73 8.0 12.9 0.00 0.00 0.00 63 1017.0
20260905203550 26 69 4.8 6.4 0.00 0.00 0.00 63 1016.8
20260905203045 26 40 3.2 6.4 0.00 0.00 0.00 63 1016.9
20260905202540 27 49 6.4 6.4 0.00 0.00 0.00 63 1017.0
20260905202036 26 59 3.2 4.8 0.00 0.00 0.00 63 1017.0
20260905201532 27 94 4.8 6.4 0.00 0.00 0.00 63 1016.9
20260905201031 27 50 6.4 9.7 0.00 0.00 0.00 63 1017.0
20260905200527 27 56 3.2 3.2 0.00 0.00 0.00 63 1017.3
20260905200026 27 25 12.9 14.5 0.00 0.00 0.00 63 1017.2
20260905195520 27 23 3.2 3.2 0.00 0.00 0.00 63 1017.3
20260905195016 27 53 6.4 9.7 0.00 0.00 0.00 64 1017.5
20260905194516 27 333 9.7 12.9 0.00 0.00 0.00 63 1017.8
20260905194016 27 48 4.8 4.8 0.00 0.00 0.00 63 1017.8
20260905193516 27 30 1.6 3.2 0.00 0.00 0.00 63 1017.8
20260905193011 27 33 4.8 4.8 0.00 0.00 0.00 63 1017.9
20260905192506 27 27 3.2 3.2 0.00 0.00 0.00 63 1017.8
20260905192002 27 184 1.6 3.2 0.00 0.00 0.00 63 1018.1
20260905191501 26 351 6.4 6.4 0.00 0.00 0.00 63 1018.2
20260905191000 26 349 11.3 12.9 0.00 0.00 0.00 63 1018.2
20260905190458 26 345 11.3 16.1 0.00 0.00 0.00 63 1018.2
20260905185957 26 18 12.9 16.1 0.00 0.00 0.00 63 1018.2
20260905185452 25 26 6.4 6.4 0.00 0.00 0.00 63 1018.2
20260905184951 25 20 4.8 6.4 0.00 0.00 0.00 63 1018.1
20260905184446 25 138 1.6 1.6 0.00 0.00 0.00 63 1018.4
20260905183945 25 356 11.3 12.9 0.00 0.00 0.00 63 1018.3
20260905183439 25 355 4.8 6.4 0.00 0.00 0.00 63 1018.3
20260905182934 25 40 3.2 4.8 0.00 0.00 0.00 63 1018.3
20260905182433 24 356 3.2 3.2 0.00 0.00 0.00 63 1018.3
20260905181929 24 1 6.4 9.7 0.00 0.00 0.00 63 1018.4
20260905181429 24 33 3.2 3.2 0.00 0.00 0.00 63 1018.4
20260905180928 23 37 6.4 9.7 0.00 0.00 0.00 63 1018.4
20260905180423 23 31 4.8 6.4 0.00 0.00 0.00 63 1018.4
20260905175918 23 26 4.8 6.4 0.00 0.00 0.00 63 1018.5
20260905175418 23 352 9.7 11.3 0.00 0.00 0.00 63 1018.5
20260905174913 23 14 4.8 6.4 0.00 0.00 0.00 63 1018.6
20260905174409 23 354 6.4 6.4 0.00 0.00 0.00 63 1018.4
20260905173905 23 42 8.0 9.7 0.00 0.00 0.00 63 1018.4
20260905173401 23 48 6.4 9.7 0.00 0.00 0.00 63 1018.4
20260905172901 23 25 6.4 9.7 0.00 0.00 0.00 63 1018.4
20260905172358 23 7 11.3 12.9 0.00 0.00 0.00 63 1018.7
20260905171854 23 353 8.0 9.7 0.00 0.00 0.00 63 1018.5
20260905171351 23 310 8.0 9.7 0.00 0.00 0.00 63 1018.5
20260905170847 23 21 6.4 11.3 0.00 0.00 0.00 63 1018.6
20260905170343 23 27 4.8 6.4 0.00 0.00 0.00 63 1018.6
20260905165842 23 359 9.7 11.3 0.00 0.00 0.00 63 1018.7
20260905165338 23 13 8.0 12.9 0.00 0.00 0.00 63 1018.7
20260905164838 23 61 8.0 9.7 0.00 0.00 0.00 63 1018.5
20260905164333 22 47 8.0 9.7 0.00 0.00 0.00 63 1018.7
20260905163828 22 64 8.0 11.3 0.00 0.00 0.00 63 1018.6
20260905163325 22 49 3.2 4.8 0.00 0.00 0.00 63 1018.6
20260905162821 22 31 6.4 9.7 0.00 0.00 0.00 63 1018.6
20260905162320 22 30 6.4 9.7 0.00 0.00 0.00 63 1018.7
20260905161815 22 51 1.6 3.2 0.00 0.00 0.00 62 1018.6
20260905161314 22 37 4.8 6.4 0.00 0.00 0.00 62 1018.6
20260905160812 22 17 6.4 6.4 0.00 0.00 0.00 62 1018.9
20260905160307 22 61 3.2 4.8 0.00 0.00 0.00 62 1018.6
20260905155801 22 70 3.2 4.8 0.00 0.00 0.00 62 1018.7
20260905155255 22 35 6.4 6.4 0.00 0.00 0.00 62 1018.9
20260905154754 22 62 1.6 6.4 0.00 0.00 0.00 62 1018.9
20260905154251 22 4 6.4 11.3 0.00 0.00 0.00 62 1018.8
20260905153746 22 61 4.8 4.8 0.00 0.00 0.00 62 1018.7
20260905153242 22 45 3.2 4.8 0.00 0.00 0.00 62 1018.6
20260905152737 22 53 8.0 14.5 0.00 0.00 0.00 62 1018.3
20260905152236 22 26 4.8 4.8 0.00 0.00 0.00 62 1018.2
20260905151736 22 16 9.7 12.9 0.00 0.00 0.00 62 1018.2
20260905151233 22 44 8.0 11.3 0.00 0.00 0.00 62 1018.0
20260905150732 22 40 4.8 4.8 0.00 0.00 0.00 62 1018.0
20260905150231 22 356 12.9 14.5 0.00 0.00 0.00 62 1017.9
20260905145729 21 7 9.7 11.3 0.00 0.00 0.00 62 1017.8
20260905145224 21 38 12.9 14.5 0.00 0.00 0.00 62 1018.0
20260905144723 21 12 8.0 12.9 0.00 0.00 0.00 62 1017.8
20260905144218 21 14 9.7 12.9 0.00 0.00 0.00 62 1017.8
20260905143717 21 12 8.0 11.3 0.00 0.00 0.00 62 1017.7
20260905143217 21 28 8.0 9.7 0.00 0.00 0.00 62 1017.6
20260905142715 21 30 11.3 14.5 0.00 0.00 0.00 62 1017.6
20260905142210 21 34 4.8 9.7 0.00 0.00 0.00 62 1017.6
20260905141706 21 23 9.7 11.3 0.00 0.00 0.00 62 1017.6
20260905141202 22 8 17.7 20.9 0.00 0.00 0.00 62 1017.3
20260905140656 22 41 9.7 12.9 0.00 0.00 0.00 62 1017.5
20260905140151 22 346 9.7 11.3 0.00 0.00 0.00 62 1017.4
20260905135646 22 3 12.9 16.1 0.00 0.00 0.00 62 1017.3
20260905135142 22 30 9.7 11.3 0.00 0.00 0.00 62 1017.2
20260905134641 22 35 6.4 9.7 0.00 0.00 0.00 62 1017.1
20260905134140 22 356 9.7 11.3 0.00 0.00 0.00 63 1017.2
20260905133636 22 20 4.8 6.4 0.00 0.00 0.00 63 1017.1
20260905133136 22 18 6.4 6.4 0.00 0.00 0.00 63 1017.1
20260905132635 22 35 3.2 3.2 0.00 0.00 0.00 63 1017.1
20260905132130 22 16 8.0 9.7 0.00 0.00 0.00 63 1016.8
20260905131625 22 22 6.4 9.7 0.00 0.00 0.00 62 1016.9
20260905131120 22 17 4.8 6.4 0.00 0.00 0.00 62 1016.7
20260905130615 22 39 3.2 3.2 0.00 0.00 0.00 62 1016.5
20260905130115 22 269 0.0 0.0 0.00 0.00 0.00 62 1016.4
20260905125615 22 229 0.0 0.0 0.00 0.00 0.00 62 1016.1
20260905125110 21 245 0.0 0.0 0.00 0.00 0.00 62 1016.0
20260905124607 21 252 1.6 1.6 0.00 0.00 0.00 62 1016.1
20260905124103 21 273 1.6 3.2 0.00 0.00 0.00 62 1016.1
20260905123558 21 27 1.6 1.6 0.00 0.00 0.00 62 1016.1
20260905123055 21 253 0.0 0.0 0.00 0.00 0.00 62 1015.9
20260905122555 21 215 0.0 0.0 0.00 0.00 0.00 62 1016.0
20260905122055 21 222 0.0 0.0 0.00 0.00 0.00 62 1016.0
20260905121549 21 222 0.0 0.0 0.00 0.00 0.00 62 1016.0
20260905121045 21 225 1.6 1.6 0.00 0.00 0.00 62 1016.1
20260905120544 21 216 0.0 1.6 0.00 0.00 0.00 62 1016.1
20260905120039 21 216 1.6 1.6 0.00 0.00 0.00 62 1015.9
20260905115538 21 217 0.0 0.0 0.00 0.00 0.00 62 1015.9
20260905115033 21 227 0.0 0.0 0.00 0.00 0.00 62 1016.0
20260905114532 21 197 0.0 0.0 0.00 0.00 0.00 62 1015.7
20260905114031 21 197 0.0 0.0 0.00 0.00 0.00 62 1015.7